Time,TemperatureF,DewpointF,PressureIn,WindDirection,WindDirectionDegrees,WindSpeedMPH,WindSpeedGustMPH,Humidity,HourlyPrecipIn,Conditions,Clouds,dailyrainin,SolarRadiationWatts/m^2,SoftwareType,DateUTC
2013-03-06 00:05:00,36.4,34.0,29.64,North,360,2.0,-999.0,90,-99.99,,,0.00,0,weatherlink.com 1.10,2013-03-06 00:05:00,
2013-03-06 00:20:00,36.4,34.0,29.64,NNE,17,2.0,-999.0,90,-99.99,,,0.00,0,weatherlink.com 1.10,2013-03-06 00:20:00,
2013-03-06 00:50:00,36.5,34.0,29.64,NW,320,5.0,-999.0,92,-99.99,,,0.00,0,weatherlink.com 1.10,2013-03-06 00:50:00,
2013-03-06 01:05:00,36.4,34.0,29.63,NNW,343,6.0,-999.0,92,-99.99,,,0.00,0,weatherlink.com 1.10,2013-03-06 01:05:00,
2013-03-06 01:20:00,36.8,35.0,29.64,North,5,6.0,-999.0,93,-99.99,,,0.00,0,weatherlink.com 1.10,2013-03-06 01:20:00,
2013-03-06 01:35:00,37.3,36.0,29.63,North,11,7.0,-999.0,93,-99.99,,,0.00,0,weatherlink.com 1.10,2013-03-06 01:35:00,
2013-03-06 01:50:00,37.7,36.0,29.63,ENE,65,11.0,-999.0,93,-99.99,,,0.00,0,weatherlink.com 1.10,2013-03-06 01:50:00,
2013-03-06 02:06:00,38.1,36.0,29.63,NE,51,4.0,-999.0,92,-99.99,,,0.00,0,weatherlink.com 1.10,2013-03-06 02:06:00,
2013-03-06 02:21:00,38.1,36.0,29.63,North,10,7.0,-999.0,91,-99.99,,,0.00,0,weatherlink.com 1.10,2013-03-06 02:21:00,
2013-03-06 02:36:00,38.3,36.0,29.63,NNE,32,3.0,-999.0,91,-99.99,,,0.00,0,weatherlink.com 1.10,2013-03-06 02:36:00,
2013-03-06 02:51:00,38.4,36.0,29.63,ENE,59,2.0,-999.0,90,-99.99,,,0.00,0,weatherlink.com 1.10,2013-03-06 02:51:00,
2013-03-06 03:06:00,38.5,36.0,29.62,NE,47,10.0,-999.0,90,-99.99,,,0.00,0,weatherlink.com 1.10,2013-03-06 03:06:00,
2013-03-06 03:21:00,38.6,36.0,29.62,NNE,17,8.0,-999.0,89,-99.99,,,0.00,0,weatherlink.com 1.10,2013-03-06 03:21:00,
2013-03-06 03:36:00,38.7,36.0,29.61,NE,53,10.0,-999.0,88,-99.99,,,0.00,0,weatherlink.com 1.10,2013-03-06 03:36:00,
2013-03-06 03:51:00,38.6,35.0,29.60,NNW,336,7.0,-999.0,88,-99.99,,,0.00,0,weatherlink.com 1.10,2013-03-06 03:51:00,
2013-03-06 04:06:00,38.6,35.0,29.61,North,360,9.0,-999.0,88,-99.99,,,0.00,0,weatherlink.com 1.10,2013-03-06 04:06:00,
2013-03-06 04:21:00,38.5,35.0,29.60,North,350,5.0,-999.0,87,-99.99,,,0.00,0,weatherlink.com 1.10,2013-03-06 04:21:00,
2013-03-06 04:36:00,38.4,35.0,29.60,NE,38,10.0,-999.0,87,-99.99,,,0.00,0,weatherlink.com 1.10,2013-03-06 04:36:00,
2013-03-06 04:51:00,38.4,35.0,29.60,NNE,23,16.0,-999.0,88,-99.99,,,0.00,0,weatherlink.com 1.10,2013-03-06 04:51:00,
2013-03-06 05:06:00,38.4,35.0,29.60,NE,39,4.0,-999.0,87,-99.99,,,0.00,0,weatherlink.com 1.10,2013-03-06 05:06:00,
2013-03-06 05:21:00,38.5,35.0,29.61,NNE,15,5.0,-999.0,87,-99.99,,,0.00,0,weatherlink.com 1.10,2013-03-06 05:21:00,
2013-03-06 05:36:00,38.4,35.0,29.61,NNE,33,5.0,-999.0,88,-99.99,,,0.00,0,weatherlink.com 1.10,2013-03-06 05:36:00,
2013-03-06 05:51:00,38.3,35.0,29.60,NE,36,8.0,-999.0,88,-99.99,,,0.00,0,weatherlink.com 1.10,2013-03-06 05:51:00,
2013-03-06 06:06:00,38.2,35.0,29.60,NNE,19,7.0,-999.0,88,-99.99,,,0.00,0,weatherlink.com 1.10,2013-03-06 06:06:00,
2013-03-06 06:21:00,38.2,35.0,29.60,NE,51,6.0,-999.0,89,-99.99,,,0.00,0,weatherlink.com 1.10,2013-03-06 06:21:00,
2013-03-06 06:36:00,38.3,35.0,29.60,North,360,5.0,-999.0,89,-99.99,,,0.00,0,weatherlink.com 1.10,2013-03-06 06:36:00,
2013-03-06 06:51:00,38.6,35.0,29.61,NNE,27,9.0,-999.0,88,-99.99,,,0.00,0,weatherlink.com 1.10,2013-03-06 06:51:00,
2013-03-06 07:06:00,38.9,36.0,29.62,NE,49,4.0,-999.0,88,-99.99,,,0.00,0,weatherlink.com 1.10,2013-03-06 07:06:00,
2013-03-06 07:21:00,39.0,36.0,29.62,NNE,29,10.0,-999.0,89,-99.99,,,0.00,9,weatherlink.com 1.10,2013-03-06 07:21:00,
2013-03-06 07:36:00,39.2,36.0,29.63,NNE,22,4.0,-999.0,88,-99.99,,,0.00,18,weatherlink.com 1.10,2013-03-06 07:36:00,
2013-03-06 07:51:00,39.5,36.0,29.63,NNE,29,5.0,-999.0,87,-99.99,,,0.00,19,weatherlink.com 1.10,2013-03-06 07:51:00,
2013-03-06 08:06:00,39.7,36.0,29.63,North,5,5.0,-999.0,87,-99.99,,,0.00,28,weatherlink.com 1.10,2013-03-06 08:06:00,
2013-03-06 08:21:00,39.9,36.0,29.63,NE,36,3.0,-999.0,86,-99.99,,,0.00,46,weatherlink.com 1.10,2013-03-06 08:21:00,
2013-03-06 08:36:00,40.2,36.0,29.63,ENE,69,8.0,-999.0,86,-99.99,,,0.00,56,weatherlink.com 1.10,2013-03-06 08:36:00,
2013-03-06 08:51:00,40.3,37.0,29.64,ENE,59,15.0,-999.0,86,-99.99,,,0.00,39,weatherlink.com 1.10,2013-03-06 08:51:00,
2013-03-06 09:06:00,40.2,36.0,29.64,NE,44,11.0,-999.0,86,-99.99,,,0.00,37,weatherlink.com 1.10,2013-03-06 09:06:00,
2013-03-06 09:21:00,40.0,37.0,29.63,NE,54,18.0,-999.0,87,-99.99,,,0.00,69,weatherlink.com 1.10,2013-03-06 09:21:00,
2013-03-06 09:36:00,40.2,37.0,29.63,NE,40,10.0,-999.0,87,-99.99,,,0.00,97,weatherlink.com 1.10,2013-03-06 09:36:00,
2013-03-06 09:51:00,40.3,37.0,29.64,ENE,62,7.0,-999.0,87,-99.99,,,0.00,95,weatherlink.com 1.10,2013-03-06 09:51:00,
2013-03-06 10:06:00,40.4,37.0,29.64,NE,48,8.0,-999.0,86,-99.99,,,0.00,130,weatherlink.com 1.10,2013-03-06 10:06:00,
2013-03-06 10:21:00,40.8,37.0,29.64,ENE,76,6.0,-999.0,86,-99.99,,,0.00,104,weatherlink.com 1.10,2013-03-06 10:21:00,
2013-03-06 10:36:00,40.7,37.0,29.64,ENE,61,8.0,-999.0,85,-99.99,,,0.00,160,weatherlink.com 1.10,2013-03-06 10:36:00,
2013-03-06 10:51:00,41.0,37.0,29.64,NNW,342,10.0,-999.0,85,-99.99,,,0.00,172,weatherlink.com 1.10,2013-03-06 10:51:00,
2013-03-06 11:06:00,41.3,37.0,29.64,ENE,65,7.0,-999.0,84,-99.99,,,0.00,123,weatherlink.com 1.10,2013-03-06 11:06:00,
2013-03-06 11:21:00,41.9,37.0,29.63,NE,40,10.0,-999.0,83,-99.99,,,0.00,179,weatherlink.com 1.10,2013-03-06 11:21:00,
2013-03-06 11:36:00,42.3,38.0,29.64,NNE,32,4.0,-999.0,83,-99.99,,,0.00,128,weatherlink.com 1.10,2013-03-06 11:36:00,
2013-03-06 11:51:00,42.4,38.0,29.64,NE,40,4.0,-999.0,83,-99.99,,,0.00,125,weatherlink.com 1.10,2013-03-06 11:51:00,
2013-03-06 12:06:00,42.6,38.0,29.63,ENE,71,14.0,-999.0,84,-99.99,,,0.00,116,weatherlink.com 1.10,2013-03-06 12:06:00,
2013-03-06 12:21:00,42.6,38.0,29.63,North,355,11.0,-999.0,84,-99.99,,,0.00,120,weatherlink.com 1.10,2013-03-06 12:21:00,
2013-03-06 12:36:00,42.8,38.0,29.63,ESE,105,8.0,-999.0,84,-99.99,,,0.00,107,weatherlink.com 1.10,2013-03-06 12:36:00,
2013-03-06 12:51:00,42.9,38.0,29.62,NNE,20,5.0,-999.0,84,-99.99,,,0.00,130,weatherlink.com 1.10,2013-03-06 12:51:00,
2013-03-06 13:06:00,43.0,39.0,29.62,NNE,14,8.0,-999.0,85,-99.99,,,0.00,151,weatherlink.com 1.10,2013-03-06 13:06:00,
2013-03-06 13:21:00,43.1,39.0,29.61,ESE,105,4.0,-999.0,85,-99.99,,,0.00,172,weatherlink.com 1.10,2013-03-06 13:21:00,
2013-03-06 13:37:00,43.3,39.0,29.61,North,9,11.0,-999.0,84,-99.99,,,0.00,130,weatherlink.com 1.10,2013-03-06 13:37:00,
2013-03-06 13:52:00,43.1,39.0,29.61,NNE,31,4.0,-999.0,85,-99.99,,,0.00,88,weatherlink.com 1.10,2013-03-06 13:52:00,
2013-03-06 14:07:00,42.8,39.0,29.61,North,355,5.0,-999.0,85,-99.99,,,0.00,74,weatherlink.com 1.10,2013-03-06 14:07:00,
2013-03-06 14:22:00,42.4,39.0,29.60,NNE,24,11.0,-999.0,86,-99.99,,,0.00,69,weatherlink.com 1.10,2013-03-06 14:22:00,
2013-03-06 14:37:00,42.3,38.0,29.60,NNE,29,8.0,-999.0,86,-99.99,,,0.00,63,weatherlink.com 1.10,2013-03-06 14:37:00,
2013-03-06 14:52:00,42.4,39.0,29.60,NE,55,6.0,-999.0,86,-99.99,,,0.00,77,weatherlink.com 1.10,2013-03-06 14:52:00,
2013-03-06 15:07:00,42.5,39.0,29.59,East,91,7.0,-999.0,86,-99.99,,,0.00,63,weatherlink.com 1.10,2013-03-06 15:07:00,
2013-03-06 15:22:00,42.5,38.0,29.59,NNE,32,5.0,-999.0,85,-99.99,,,0.00,53,weatherlink.com 1.10,2013-03-06 15:22:00,
2013-03-06 15:37:00,42.5,38.0,29.59,NNE,24,13.0,-999.0,85,-99.99,,,0.00,56,weatherlink.com 1.10,2013-03-06 15:37:00,
2013-03-06 15:52:00,42.5,38.0,29.59,NE,42,6.0,-999.0,85,-99.99,,,0.00,51,weatherlink.com 1.10,2013-03-06 15:52:00,
2013-03-06 16:57:00,42.4,38.0,29.58,NE,52,10.0,-999.0,84,-99.99,,,0.00,21,weatherlink.com 1.10,2013-03-06 16:57:00,
2013-03-06 17:08:00,42.4,38.0,29.58,NNE,25,7.0,-999.0,84,-99.99,,,0.00,18,weatherlink.com 1.10,2013-03-06 17:08:00,
2013-03-06 17:23:00,42.4,38.0,29.58,ENE,61,4.0,-999.0,85,-99.99,,,0.00,18,weatherlink.com 1.10,2013-03-06 17:23:00,
2013-03-06 17:38:00,42.3,38.0,29.59,NNE,18,3.0,-999.0,84,-99.99,,,0.00,11,weatherlink.com 1.10,2013-03-06 17:38:00,
2013-03-06 17:53:00,42.1,38.0,29.59,ENE,76,6.0,-999.0,85,-99.99,,,0.00,0,weatherlink.com 1.10,2013-03-06 17:53:00,
2013-03-06 18:09:00,42.0,38.0,29.58,NNE,33,2.0,-999.0,85,-99.99,,,0.00,0,weatherlink.com 1.10,2013-03-06 18:09:00,
2013-03-06 18:23:00,41.9,38.0,29.59,North,355,8.0,-999.0,85,-99.99,,,0.00,0,weatherlink.com 1.10,2013-03-06 18:23:00,
2013-03-06 18:38:00,41.9,38.0,29.60,NE,41,7.0,-999.0,86,-99.99,,,0.00,0,weatherlink.com 1.10,2013-03-06 18:38:00,
2013-03-06 18:53:00,42.0,38.0,29.60,NNE,26,8.0,-999.0,86,-99.99,,,0.00,0,weatherlink.com 1.10,2013-03-06 18:53:00,
2013-03-06 19:08:00,41.9,38.0,29.60,East,86,17.0,-999.0,86,-99.99,,,0.00,0,weatherlink.com 1.10,2013-03-06 19:08:00,
2013-03-06 19:23:00,42.0,38.0,29.60,NNE,14,4.0,-999.0,86,-99.99,,,0.00,0,weatherlink.com 1.10,2013-03-06 19:23:00,
2013-03-06 19:38:00,42.0,38.0,29.60,NNE,24,7.0,-999.0,86,-99.99,,,0.00,0,weatherlink.com 1.10,2013-03-06 19:38:00,
2013-03-06 19:53:00,41.8,38.0,29.60,East,80,12.0,-999.0,87,-99.99,,,0.00,0,weatherlink.com 1.10,2013-03-06 19:53:00,
2013-03-06 20:08:00,41.6,38.0,29.60,NNE,29,12.0,-999.0,88,-99.99,,,0.00,0,weatherlink.com 1.10,2013-03-06 20:08:00,
2013-03-06 20:23:00,41.3,38.0,29.60,NE,50,4.0,-999.0,89,-99.99,,,0.01,0,weatherlink.com 1.10,2013-03-06 20:23:00,
2013-03-06 20:38:00,41.1,38.0,29.60,ENE,75,8.0,-999.0,90,-99.99,,,0.01,0,weatherlink.com 1.10,2013-03-06 20:38:00,
2013-03-06 20:53:00,40.9,38.0,29.60,NNE,29,10.0,-999.0,90,-99.99,,,0.01,0,weatherlink.com 1.10,2013-03-06 20:53:00,
2013-03-06 21:08:00,40.9,39.0,29.60,North,11,8.0,-999.0,91,-99.99,,,0.01,0,weatherlink.com 1.10,2013-03-06 21:08:00,
2013-03-06 21:23:00,40.9,39.0,29.59,NNE,25,7.0,-999.0,92,-99.99,,,0.01,0,weatherlink.com 1.10,2013-03-06 21:23:00,
2013-03-06 21:38:00,40.8,39.0,29.59,NE,49,5.0,-999.0,92,-99.99,,,0.01,0,weatherlink.com 1.10,2013-03-06 21:38:00,
2013-03-06 21:53:00,40.8,39.0,29.59,NE,41,5.0,-999.0,92,-99.99,,,0.01,0,weatherlink.com 1.10,2013-03-06 21:53:00,
2013-03-06 22:08:00,40.8,39.0,29.59,NNE,17,8.0,-999.0,93,-99.99,,,0.02,0,weatherlink.com 1.10,2013-03-06 22:08:00,
2013-03-06 22:23:00,40.7,39.0,29.59,North,5,4.0,-999.0,93,-99.99,,,0.02,0,weatherlink.com 1.10,2013-03-06 22:23:00,
2013-03-06 22:38:00,40.6,39.0,29.59,NNE,16,3.0,-999.0,94,-99.99,,,0.02,0,weatherlink.com 1.10,2013-03-06 22:38:00,
2013-03-06 22:57:00,40.6,39.0,29.58,NNW,345,5.0,-999.0,94,-99.99,,,0.02,0,weatherlink.com 1.10,2013-03-06 22:57:00,
2013-03-06 23:08:00,40.6,39.0,29.58,North,9,6.0,-999.0,94,-99.99,,,0.02,0,weatherlink.com 1.10,2013-03-06 23:08:00,
2013-03-06 23:29:00,40.5,39.0,29.57,NNE,25,8.0,-999.0,94,-99.99,,,0.03,0,weatherlink.com 1.10,2013-03-06 23:29:00,
2013-03-06 23:38:00,40.5,39.0,29.57,NNE,30,8.0,-999.0,94,-99.99,,,0.03,0,weatherlink.com 1.10,2013-03-06 23:38:00,
2013-03-06 23:53:00,40.5,39.0,29.57,NE,42,6.0,-999.0,95,-99.99,,,0.04,0,weatherlink.com 1.10,2013-03-06 23:53:00,